GalileoSat-21

operational
NORAD ID: 43057 Int'l Des: 2017-079 Owner: GSAEU Country: I-EU Constellation: Galileo
MEOCIRCULAR

Über GalileoSat-21

Beschreibung wird geladen...

Live-Position

3D-Globus wird geladen...

Nächste Überflüge

Höhenverlauf

Altitude vs Time

uPlot chart will show altitude changes over time

Zweizeiliger Elementsatz

1 43057U 17079C 25345.82151911 .00000012 00000-0 00000+0 0 9992
2 43057 55.1287 226.6610 0002796 345.2118 14.8584 1.70473970 49797
Epoch: 11. Dez. 2025 • Age: 50 hours

Aktueller Status

Höhe 23231.8 km
Geschwindigkeit 3.67 km/s
Subsatellitenpunkt -10.31°S, 8.86°E
Startdatum 12. Dez. 2017
Alter 8 years
Typ navigation

Technische Details

Klassifizierung Payload
Masse 715.00 kg
Trockenmasse 700.00 kg
Gesamtmasse 715.00 kg
Länge 2.70 m
Durchmesser 1.60 m
Spannweite 14.70 m
Form Box+2 pan
Hersteller OHB
Bus-Typ GalileoSat
Phasenstatus In Orbit
Besitzer/Staat GSAEU/I-EU

Große Konstellationen

Loading constellations...